Temp_Advection
nan nan nan nan nan nan nan nan nan nan nan nan nan nan nan nan nan nan nan nan nan nan nan nan nan nan nan nan nan nan nan nan nan nan nan nan nan nan nan nan nan nan nan
nan 1 1 1 0 0 0 0 0 0 0 0 0 0 0 0 0 0 0 0 0 -0 -0 -0 0 0 0 0 0 0 0 1 1 -1 -1 -1 -1 -1 -1 -1 -1 -1 nan
nan 1 1 1 1 1 0 0 0 0 0 0 -0 0 0 0 0 0 0 0 0 0 -0 -0 -0 0 0 0 0 0 0 0 1 0 -0 -0 -0 -1 -1 -0 -1 -1 nan
nan 1 1 1 1 0 0 0 1 0 0 0 0 0 0 0 0 0 0 0 0 0 -0 -0 -0 -0 -0 0 0 0 0 0 1 1 -0 -0 -0 -0 -0 0 -1 -1 nan
nan 1 1 1 1 0 0 0 0 0 0 0 0 0 0 0 0 0 -0 0 -0 -0 -0 -0 0 0 0 0 0 -0 -0 0 0 1 1 0 -0 0 -0 0 1 -1 nan
nan 1 1 1 0 1 0 0 0 0 0 0 0 0 0 0 0 1 0 -0 -0 -0 -0 -0 -0 -0 0 0 1 1 0 -0 0 0 0 1 -0 -0 0 -0 0 0 nan
nan 1 1 1 0 1 0 0 0 0 0 0 0 0 0 -0 -0 1 1 -0 -0 -0 0 0 -0 -0 -0 -1 -0 0 0 1 1 0 0 0 -0 -1 -0 -0 -0 -0 nan
nan 1 1 0 0 1 0 0 0 0 0 0 -0 -0 0 -0 -0 1 0 -0 -0 -0 0 0 -0 -1 -0 -0 -1 -1 -0 -0 -0 0 1 1 0 -0 -0 -0 -0 -0 nan
nan 1 0 0 0 1 0 0 0 0 0 0 -0 -0 -0 -0 -0 0 0 -0 -0 -0 -0 -0 0 -0 -1 -0 -0 -1 -1 -1 -0 -0 0 1 0 -0 0 0 -0 -0 nan
nan 1 1 1 0 0 0 0 0 0 0 0 -0 -0 -0 -0 -0 0 0 -0 -0 -0 -0 -0 -0 0 -0 -1 -0 -0 -1 -1 -1 -1 -0 0 0 0 0 0 -0 -0 nan
nan 1 1 1 0 0 0 0 0 0 0 0 0 0 -0 -0 -0 -0 0 -0 -0 -0 -0 -0 -0 -0 -0 -1 -1 -1 -1 -1 -1 -1 -1 -1 -0 -0 -0 -0 0 0 nan
nan 1 1 1 0 0 0 0 0 0 0 0 0 0 0 -0 -0 -0 0 -0 -0 -0 -0 -0 -1 -0 0 -0 -0 -1 -1 -1 -1 -1 -1 -1 -0 -0 -0 -1 -0 -0 nan
nan 1 1 0 0 0 0 0 0 0 -0 -0 -0 -0 -0 -0 -0 -0 0 0 -0 -0 -0 0 -0 -0 0 0 0 0 -1 -1 -0 -0 -0 -1 -0 -0 0 -0 -1 -1 nan
nan 0 0 0 0 0 0 0 0 0 -0 -0 -0 -1 -1 -0 -1 -0 -0 -0 -0 -0 -0 -0 0 -0 -0 -0 -0 0 -0 -0 -0 -0 -0 -0 -0 -0 -0 -0 -0 -1 nan
nan 0 0 0 0 0 0 0 0 0 -0 -0 -0 -1 -1 -1 -1 -0 -0 -0 -0 -0 -0 -0 -0 -0 -1 -1 -1 -0 -0 -1 -0 -0 -0 0 -0 -0 -0 -0 -0 -0 nan
nan 0 0 0 0 0 0 0 -0 -0 -0 -0 -0 -0 -0 -0 -0 -0 -0 -0 0 -0 -0 -0 -1 -1 -0 -0 -0 -1 -1 -1 -1 -0 -0 -0 0 -0 -0 -0 -0 -0 nan
nan 0 0 0 0 0 0 0 -0 -0 -0 0 -0 0 0 -0 0 -0 -0 -0 1 0 -0 -1 -0 -0 -0 -0 -0 -0 -0 -1 -1 -0 -0 -0 0 0 -0 0 0 -0 nan
nan 0 0 0 0 0 0 0 0 0 -0 -0 -0 -0 0 0 0 0 0 -0 -0 -0 -0 -0 -0 -0 -0 -0 -0 -0 -0 -0 -1 -0 -0 -0 0 -0 -0 -0 -0 -0 nan
nan 0 0 0 0 0 -0 -0 -0 -0 -0 -0 -0 0 -0 0 0 0 0 -0 -1 -1 -0 -0 0 -0 -0 0 -0 -0 -0 -0 -0 -1 -0 -0 0 -0 -0 -0 0 0 nan
nan 0 0 0 0 0 0 -0 -0 -0 -0 -0 -0 -0 -0 -0 -0 -1 -0 -0 -0 -0 0 -0 -0 0 -0 0 -0 -0 -0 -0 -0 -0 -0 -0 -0 -0 -0 -0 -0 0 nan
nan -0 0 0 0 0 -0 -0 -0 -0 -0 -0 -0 -0 -0 -0 -1 -0 -0 -0 0 0 0 0 -0 0 0 -0 0 -0 -0 -0 -0 -0 -0 -0 -0 -0 -0 -0 -0 0 nan
nan 0 0 0 0 -0 -0 -0 -0 -0 -0 -0 -0 -0 -0 -0 -0 -0 -0 -0 0 0 0 0 -0 -0 0 0 0 -0 -0 -0 -0 -0 -0 -0 -0 -0 -0 -0 0 -0 nan
nan 0 0 0 0 -0 -0 -0 -0 -0 -0 -0 -0 -0 -0 -0 -0 -0 -0 -0 -0 0 0 0 0 -0 0 0 0 -0 -0 -0 -0 0 -0 -1 -0 -0 -0 -0 -0 -0 nan
nan 0 0 0 -0 -0 -0 -0 -0 -0 -0 -0 -0 -0 -0 -0 -0 -0 -0 -0 -0 -0 0 0 0 0 -0 0 0 -0 -0 -0 -0 -0 -0 -0 -0 -0 -0 -0 -0 -0 nan
nan 0 0 0 0 0 -0 -0 -0 -0 -0 -0 -0 -0 -0 -0 -0 -1 -1 -0 -0 -0 -0 0 0 0 -0 0 0 -0 -0 -0 -0 -0 -0 -0 -0 -0 -0 -0 0 -0 nan
nan nan nan nan nan nan nan nan nan nan nan nan nan nan nan nan nan nan nan nan nan nan nan nan nan nan nan nan nan nan nan nan nan nan nan nan nan nan nan nan nan nan nan
Wind_Speed
39 37 34 30 27 24 22 19 17 15 14 14 13 14 15 16 17 18 20 20 20 20 19 22 24 24 27 29 29 28 28 29 38 45 44 45 44 41 42 42 35 41 38
37 36 33 29 27 24 21 18 16 15 13 13 13 14 15 16 17 18 19 20 20 20 21 23 26 26 27 27 27 26 29 32 36 43 47 48 45 44 45 42 41 41 38
36 35 32 29 26 23 19 16 15 14 12 12 13 14 15 16 17 18 19 20 20 20 22 25 25 26 30 30 27 31 32 34 35 39 44 41 44 41 43 40 42 42 41
36 34 31 27 24 20 17 15 14 12 12 12 13 14 15 16 17 18 19 21 22 23 24 25 26 27 28 27 29 32 31 34 36 36 38 41 42 40 39 44 45 44 47
35 31 28 25 22 19 16 14 12 11 11 11 12 13 15 16 17 19 20 20 23 24 24 23 24 24 25 25 26 28 32 34 34 36 36 37 37 38 43 47 43 47 47
32 30 27 25 21 17 15 12 11 11 10 10 11 13 14 15 17 17 16 18 21 23 25 25 24 24 24 26 28 28 25 29 33 36 40 35 37 38 42 46 41 44 48
31 29 27 23 19 15 13 11 10 10 9 9 11 12 13 14 15 16 15 17 21 23 24 25 26 25 29 29 28 25 31 33 29 31 36 35 37 37 42 42 41 41 44
31 29 25 21 17 14 12 10 9 9 8 9 9 11 12 13 15 16 14 18 20 21 22 24 27 30 30 30 34 37 36 34 33 31 32 33 33 35 36 37 40 40 44
32 29 24 19 15 13 11 10 9 7 7 7 8 9 11 12 15 17 14 18 20 22 22 26 30 30 33 30 31 34 37 37 33 31 31 29 30 31 30 33 36 40 41
30 26 21 17 14 11 10 9 8 6 6 6 7 9 11 13 14 16 15 18 22 25 29 31 32 31 27 28 32 37 40 40 35 33 32 34 33 31 26 27 33 36 38
27 23 18 15 11 11 10 8 7 5 5 5 7 8 10 12 13 13 15 18 23 28 30 32 33 29 29 32 33 34 34 33 33 32 32 29 30 27 28 29 29 28 34
26 22 17 13 13 12 9 7 5 4 4 5 7 8 10 12 13 14 16 18 22 26 30 33 31 30 33 33 31 30 27 28 25 26 26 28 27 27 29 30 28 28 24
25 19 16 15 14 11 8 6 4 3 4 5 7 9 12 14 14 17 21 22 24 25 30 29 31 35 33 32 29 28 22 21 19 21 24 28 24 24 28 30 29 30 26
22 19 17 15 12 10 7 5 3 3 4 5 8 11 13 15 18 22 25 27 27 29 29 32 33 29 27 26 26 25 20 18 17 19 21 24 21 22 27 26 29 33 30
20 20 17 14 11 8 6 4 2 1 4 7 9 11 14 17 19 20 21 23 25 25 27 29 29 29 30 30 29 27 24 17 16 16 17 18 21 20 26 24 26 30 27
23 20 16 13 11 8 6 4 2 2 4 6 7 8 10 13 17 19 19 22 22 22 25 28 29 30 31 30 30 30 26 21 16 16 16 15 16 17 23 24 23 26 26
19 18 16 13 11 9 7 5 4 4 5 8 9 10 12 14 17 18 19 20 20 23 27 29 30 29 31 30 29 29 28 23 18 16 16 13 13 15 21 19 21 24 24
17 15 14 12 10 10 9 9 8 6 6 8 10 11 13 15 17 17 20 21 23 25 29 30 31 30 30 30 29 28 27 24 18 14 12 9 11 14 17 15 18 20 22
16 16 13 12 11 10 9 9 9 9 11 12 11 11 15 17 16 18 21 24 26 28 30 32 31 31 30 29 28 26 25 22 18 14 10 8 10 12 12 12 15 16 17
16 14 13 12 12 11 10 9 9 9 12 15 16 18 21 21 24 26 26 27 26 26 28 31 31 32 30 29 29 25 24 21 16 12 8 6 8 9 9 9 10 13 15
15 15 12 12 11 11 10 9 9 10 11 12 15 17 18 19 23 26 27 28 29 27 28 31 32 31 31 30 29 26 24 21 16 13 7 5 8 6 5 5 7 8 9
12 13 13 11 11 11 10 9 8 8 9 11 13 14 15 17 20 23 25 28 29 30 27 29 33 31 31 31 29 26 23 21 15 13 9 9 4 6 4 2 5 4 4
11 11 11 11 10 9 8 7 6 7 9 10 12 14 15 17 19 22 25 27 29 31 32 30 31 33 31 30 27 24 21 20 15 12 10 9 4 3 6 3 4 1 0
11 10 9 9 9 7 6 6 7 8 9 11 13 14 16 18 20 21 23 25 29 31 32 33 31 33 33 29 26 23 18 16 15 12 10 10 8 6 8 7 6 3 2
9 9 9 8 8 7 7 7 8 9 10 12 14 15 17 20 22 24 25 25 27 30 32 34 33 33 33 29 27 22 17 13 13 10 9 10 8 6 9 9 8 7 5
9 8 8 8 8 7 6 7 8 9 11 12 14 16 18 21 22 24 27 29 28 29 31 34 35 34 34 30 29 26 17 10 11 8 11 14 11 7 11 11 10 9 8
Wind_Direction
205 206 208 211 214 219 225 235 249 263 274 284 294 301 306 307 309 311 313 314 316 318 322 320 322 325 320 318 315 312 310 310 301 311 316 322 322 324 324 324 324 327 323
204 204 207 210 212 217 225 237 251 263 274 285 293 300 304 307 309 310 311 314 317 318 322 322 325 325 322 320 321 318 316 317 310 304 315 317 319 324 323 324 322 324 321
200 202 204 207 210 216 227 240 253 265 276 286 295 301 303 306 308 309 311 312 315 319 323 324 324 328 328 326 325 319 320 317 315 311 306 309 315 318 322 323 326 327 328
198 200 204 206 209 216 227 240 254 265 278 288 296 301 304 308 309 310 310 312 318 323 324 326 327 324 320 322 324 316 314 312 311 307 304 309 315 320 319 323 321 325 327
197 199 200 204 208 216 227 239 251 266 279 288 296 301 307 310 311 314 315 320 318 317 319 321 321 322 322 316 307 312 311 306 307 308 304 309 313 318 325 328 320 321 324
194 197 199 202 207 216 227 237 250 265 276 287 297 304 310 314 315 316 317 316 313 315 319 323 324 323 324 321 315 305 302 301 299 301 305 305 309 320 328 322 320 322 320
193 194 196 200 206 216 225 237 249 261 274 289 301 309 315 319 321 323 324 314 313 319 321 322 323 323 320 317 316 318 317 315 310 302 301 308 314 318 323 323 322 320 317
191 192 194 198 203 212 221 233 246 259 278 294 306 315 324 328 327 326 329 314 319 322 322 325 326 323 325 325 318 313 310 308 310 311 313 311 311 312 313 319 321 321 320
188 189 191 195 200 209 216 231 245 260 282 298 314 327 331 333 333 330 330 323 325 326 329 330 331 324 320 317 314 312 309 307 305 308 306 312 313 311 317 325 328 327 322
185 184 185 188 193 204 220 229 242 261 282 309 328 336 339 340 334 334 332 331 328 331 335 330 326 325 321 320 316 311 305 302 304 309 313 308 311 321 324 325 331 327 326
178 181 177 177 189 210 217 223 238 258 290 313 331 343 344 338 343 345 338 333 332 332 324 324 327 331 323 318 315 307 303 304 296 298 302 311 313 322 324 328 331 328 325
174 172 166 183 200 205 209 222 232 258 279 303 325 335 346 350 355 353 343 336 335 324 325 327 331 325 321 320 319 318 311 306 297 293 308 309 314 323 325 328 333 332 328
166 170 176 194 195 196 202 214 228 253 281 312 332 341 351 353 351 353 354 342 334 329 327 327 323 327 326 325 326 323 316 319 309 299 307 312 315 322 320 327 331 342 337
176 173 182 183 185 188 193 198 216 256 301 338 350 351 351 354 352 356 348 337 336 332 334 326 327 326 328 331 332 334 326 319 322 307 310 315 322 326 327 336 338 344 343
164 171 173 175 176 179 177 175 185 306 353 -0 355 359 352 354 356 343 339 337 334 334 325 330 333 340 342 342 341 341 338 324 320 312 310 313 320 329 331 339 339 342 345
166 167 167 165 164 166 163 146 113 21 13 358 5 4 359 355 351 343 339 340 341 343 338 342 345 346 344 342 341 339 340 333 319 321 318 315 320 329 331 333 341 345 350
164 160 155 154 150 148 143 128 96 76 43 22 18 18 6 10 350 351 349 341 354 356 357 351 347 346 344 342 340 339 336 333 322 318 326 325 327 328 328 339 347 349 358
156 149 147 142 137 130 126 122 115 105 76 49 28 17 13 9 3 359 357 351 358 5 0 354 348 346 344 341 338 336 335 331 325 313 320 322 324 332 331 344 351 352 358
150 144 139 133 127 116 108 100 86 74 66 56 50 35 29 21 8 11 9 8 4 4 1 353 349 346 343 341 337 334 333 330 326 315 316 310 322 335 328 336 350 359 359
143 135 130 128 121 115 105 94 84 72 58 49 40 33 31 19 18 17 15 10 5 2 1 355 349 347 343 341 338 333 332 330 321 309 302 309 299 314 316 325 349 359 2
141 135 131 126 121 111 102 95 81 69 57 40 30 24 20 12 15 17 14 12 8 2 359 358 352 348 346 341 340 333 330 329 320 309 267 291 312 316 294 313 350 1 -0
140 136 133 129 119 113 101 88 75 60 48 35 30 23 17 11 13 10 8 8 7 5 359 357 354 350 348 342 338 331 324 327 318 302 261 250 278 309 255 281 334 349 357
142 139 134 127 122 110 100 86 62 41 29 16 9 5 2 1 2 2 3 2 1 1 1 359 356 352 349 344 338 331 322 323 314 294 286 239 228 267 213 220 268 313 358
144 138 132 129 120 110 93 70 49 35 24 16 10 4 0 358 354 353 353 352 355 357 359 358 357 354 348 345 340 333 321 321 312 287 267 220 192 232 212 202 216 229 199
143 136 132 126 118 104 86 71 54 39 26 19 11 5 6 3 360 0 357 353 352 352 355 357 356 355 349 345 344 337 324 310 308 280 244 205 195 219 214 202 203 213 202
136 135 131 123 111 96 78 58 38 26 14 9 3 357 358 356 356 358 357 356 353 353 356 357 356 353 349 348 347 342 325 317 306 269 229 204 194 216 207 210 206 200 208
Height
1430 1438 1445 1451 1456 1460 1463 1465 1466 1466 1465 1464 1462 1460 1459 1457 1455 1452 1449 1446 1444 1441 1438 1436 1432 1429 1423 1420 1416 1411 1406 1401 1390 1379 1375 1368 1362 1357 1350 1345 1338 1332 1325
1427 1435 1441 1447 1451 1455 1458 1460 1461 1461 1460 1459 1457 1456 1454 1452 1450 1448 1445 1442 1439 1437 1434 1431 1427 1423 1418 1415 1410 1406 1401 1396 1388 1376 1369 1362 1357 1351 1344 1337 1331 1325 1318
1424 1432 1438 1442 1447 1451 1454 1457 1457 1457 1455 1455 1453 1451 1450 1447 1445 1443 1440 1438 1435 1432 1429 1426 1422 1417 1412 1408 1405 1400 1395 1390 1384 1375 1364 1359 1351 1347 1338 1331 1325 1316 1309
1421 1428 1434 1439 1443 1447 1450 1452 1453 1453 1452 1451 1449 1448 1445 1443 1440 1438 1436 1433 1429 1427 1424 1421 1417 1412 1408 1403 1399 1395 1390 1385 1379 1372 1363 1354 1349 1341 1336 1326 1315 1309 1300
1418 1425 1430 1436 1440 1443 1446 1447 1448 1449 1448 1447 1445 1443 1441 1438 1435 1432 1430 1427 1424 1422 1420 1417 1412 1408 1404 1400 1396 1391 1386 1381 1374 1367 1359 1352 1344 1337 1330 1321 1313 1302 1294
1415 1422 1427 1432 1436 1440 1442 1443 1443 1444 1444 1443 1441 1439 1437 1434 1430 1428 1426 1424 1421 1418 1414 1411 1408 1403 1399 1395 1391 1386 1383 1376 1369 1363 1355 1349 1342 1335 1326 1319 1310 1300 1285
1413 1419 1424 1429 1433 1437 1439 1440 1440 1441 1440 1439 1437 1436 1433 1430 1426 1424 1423 1420 1417 1414 1410 1405 1402 1399 1393 1388 1383 1379 1375 1372 1366 1359 1351 1345 1337 1331 1325 1317 1309 1301 1289
1410 1416 1421 1426 1429 1433 1435 1437 1437 1437 1436 1435 1434 1432 1429 1426 1422 1420 1419 1417 1413 1409 1405 1401 1397 1392 1387 1382 1377 1372 1368 1363 1357 1352 1347 1340 1335 1328 1324 1315 1306 1296 1285
1406 1412 1418 1422 1426 1431 1433 1434 1434 1433 1432 1432 1430 1428 1425 1422 1419 1417 1416 1413 1408 1405 1401 1396 1390 1386 1383 1378 1372 1366 1360 1355 1351 1347 1342 1337 1331 1326 1320 1311 1302 1292 1278
1405 1410 1414 1419 1424 1429 1430 1431 1431 1431 1430 1428 1426 1424 1421 1419 1416 1414 1413 1409 1405 1400 1396 1391 1387 1382 1377 1373 1368 1361 1352 1347 1343 1338 1334 1330 1326 1320 1315 1310 1301 1292 1281
1403 1410 1413 1417 1422 1426 1427 1428 1428 1428 1427 1425 1423 1421 1418 1416 1414 1411 1409 1406 1402 1397 1393 1387 1381 1376 1372 1366 1361 1354 1348 1342 1337 1333 1328 1325 1319 1315 1310 1305 1299 1292 1281
1402 1407 1411 1416 1420 1423 1424 1425 1425 1425 1424 1422 1420 1419 1416 1414 1411 1409 1406 1404 1401 1395 1388 1382 1377 1371 1365 1359 1353 1347 1343 1337 1332 1328 1324 1320 1315 1311 1305 1300 1295 1288 1281
1400 1404 1409 1414 1417 1419 1420 1422 1422 1422 1421 1419 1417 1415 1413 1411 1409 1406 1402 1400 1396 1391 1386 1380 1372 1365 1359 1353 1347 1342 1337 1332 1328 1324 1321 1316 1313 1309 1303 1297 1292 1285 1276
1397 1402 1407 1411 1414 1416 1418 1419 1419 1418 1417 1416 1414 1413 1411 1408 1405 1402 1398 1394 1391 1386 1380 1373 1368 1362 1356 1350 1343 1338 1333 1329 1326 1322 1319 1314 1311 1307 1301 1297 1290 1282 1273
1397 1402 1406 1410 1413 1414 1415 1416 1416 1416 1414 1413 1412 1410 1408 1405 1403 1402 1398 1393 1387 1382 1376 1369 1363 1357 1350 1345 1340 1335 1331 1326 1323 1320 1317 1313 1310 1307 1301 1297 1292 1285 1279
1398 1401 1405 1409 1411 1412 1413 1413 1414 1414 1414 1413 1411 1409 1407 1405 1403 1399 1395 1390 1383 1379 1373 1366 1360 1354 1349 1343 1337 1332 1328 1324 1321 1318 1315 1313 1310 1306 1302 1298 1293 1288 1280
1399 1403 1405 1408 1410 1412 1412 1412 1412 1413 1412 1411 1409 1408 1407 1404 1401 1397 1393 1388 1381 1376 1371 1365 1359 1353 1347 1342 1336 1332 1327 1323 1320 1317 1315 1312 1311 1309 1304 1299 1295 1291 1285
1402 1404 1406 1409 1411 1412 1412 1412 1413 1413 1412 1411 1409 1407 1405 1404 1399 1395 1390 1385 1379 1373 1370 1364 1358 1352 1346 1340 1335 1330 1326 1321 1318 1315 1314 1313 1312 1309 1304 1301 1299 1294 1290
1403 1406 1407 1409 1411 1412 1412 1413 1412 1413 1412 1411 1410 1408 1405 1402 1399 1394 1389 1383 1378 1373 1368 1363 1357 1351 1345 1339 1334 1328 1324 1320 1316 1314 1313 1312 1311 1309 1305 1303 1300 1297 1294
1405 1407 1408 1410 1411 1411 1413 1414 1414 1413 1411 1410 1409 1406 1403 1401 1395 1390 1387 1382 1378 1372 1366 1361 1356 1350 1343 1337 1331 1326 1321 1318 1315 1314 1313 1312 1311 1311 1308 1305 1304 1301 1297
1406 1407 1409 1410 1411 1412 1413 1414 1415 1413 1412 1411 1408 1406 1404 1401 1397 1392 1388 1383 1378 1372 1366 1361 1353 1347 1342 1335 1329 1324 1319 1316 1313 1312 1313 1312 1311 1311 1311 1307 1306 1306 1303
1409 1409 1410 1410 1410 1412 1413 1414 1414 1414 1412 1411 1409 1407 1405 1402 1398 1394 1389 1383 1378 1372 1366 1359 1353 1346 1340 1334 1327 1322 1317 1314 1311 1310 1310 1311 1311 1311 1311 1310 1309 1309 1308
1411 1411 1410 1410 1411 1412 1413 1414 1414 1413 1412 1411 1409 1407 1405 1402 1398 1393 1388 1383 1377 1371 1365 1358 1351 1344 1338 1332 1326 1320 1316 1312 1310 1309 1308 1309 1310 1311 1312 1312 1312 1313 1312
1412 1412 1412 1412 1412 1413 1412 1413 1413 1412 1411 1410 1409 1407 1404 1401 1397 1392 1387 1382 1376 1370 1363 1356 1349 1342 1336 1330 1324 1318 1314 1311 1308 1306 1306 1308 1310 1311 1312 1314 1314 1314 1315
1413 1412 1412 1413 1413 1412 1412 1412 1412 1411 1411 1410 1409 1406 1404 1401 1396 1390 1386 1381 1375 1368 1361 1354 1347 1341 1334 1328 1322 1316 1311 1308 1306 1304 1304 1306 1307 1310 1312 1315 1315 1316 1317
1412 1414 1413 1413 1412 1413 1412 1412 1412 1411 1411 1410 1408 1406 1403 1399 1395 1389 1384 1379 1373 1366 1360 1352 1345 1339 1332 1325 1319 1313 1308 1306 1303 1303 1302 1305 1307 1309 1311 1314 1317 1317 1318